EW7084 Weather Reports


Display with metric or nautical units.
time (UTC)temp
F
wind
direction
speed
MPH
gust
MPH
rain 1hr
in
rain 24hr
in
rain mn
in
humidity
%
barometer
mb
20260902093024 67 276 0.0 0.0 0.00 1.26 0.00 92 1017.4
20260902091517 67 276 0.0 0.0 0.00 1.26 0.00 92 1017.4
20260902090016 67 276 0.0 0.0 0.00 1.26 0.00 92 1017.5
20260902084515 67 276 0.0 0.0 0.00 1.29 0.00 92 1017.5
20260902083014 67 276 0.0 2.0 0.00 1.29 0.00 92 1017.5
20260902081514 67 276 0.0 0.0 0.00 1.29 0.00 92 1017.4
20260902080020 67 276 0.0 0.0 0.00 1.29 0.00 92 1017.2
20260902074512 67 276 0.0 2.0 0.00 1.30 0.00 92 1017.4
20260902073024 67 276 0.0 0.0 0.00 1.30 0.00 92 1017.3
20260902071515 67 276 0.0 2.0 0.00 1.30 0.00 92 1017.3
20260902070010 67 276 0.0 1.0 0.00 1.30 0.00 92 1017.4
20260902064507 68 276 0.0 2.0 0.00 1.30 0.00 91 1017.4
20260902063012 68 276 0.0 1.0 0.00 1.30 0.00 91 1017.4
20260902061506 68 276 0.0 1.0 0.00 1.30 0.00 91 1017.5
20260902060006 68 276 0.0 0.0 0.00 1.30 0.00 91 1017.4
20260902054507 69 276 0.0 0.0 0.00 1.30 0.00 91 1017.4
20260902051601 69 276 0.0 1.0 0.00 1.30 0.00 91 1017.4
20260902050058 70 276 0.0 0.0 0.00 1.30 0.00 91 1017.3
20260902044557 70 276 0.0 0.0 0.00 1.30 0.00 91 1017.3
20260902043057 70 276 0.0 3.0 0.00 1.30 0.00 91 1017.2
20260902041607 71 276 0.0 0.0 0.00 1.30 0.00 90 1017.0
20260902040057 71 276 0.0 0.0 0.00 1.30 0.00 89 1016.9
20260902034553 71 276 0.0 0.0 0.00 1.30 1.30 89 1016.9
20260902033054 72 276 0.0 0.0 0.00 1.30 1.30 89 1016.8
20260902031549 72 276 0.0 0.0 0.00 1.30 1.30 88 1016.7
20260902030050 72 276 0.0 0.0 0.00 1.30 1.30 88 1016.5
20260902024549 72 276 0.0 0.0 0.00 1.30 1.30 88 1016.2
20260902023049 73 276 0.0 0.0 0.00 1.30 1.30 88 1016.3
20260902021551 73 276 0.0 0.0 0.00 1.30 1.30 87 1016.5
20260902020048 74 276 0.0 0.0 0.00 1.30 1.30 87 1016.5
20260902014551 74 276 0.0 0.0 0.00 1.32 1.30 87 1016.3
20260902013046 74 276 0.0 0.0 0.00 1.32 1.30 87 1016.2
20260902011545 75 276 0.0 0.0 0.00 1.32 1.30 86 1016.0
20260902010045 75 276 0.0 0.0 0.00 1.32 1.30 86 1016.1
20260902004545 76 276 0.0 0.0 0.00 1.32 1.30 84 1015.9
20260902003050 77 276 0.0 0.0 0.00 1.32 1.30 82 1015.5
20260902001544 78 276 0.0 0.0 0.00 1.32 1.30 81 1015.3
20260902000056 78 276 0.0 0.0 0.00 1.32 1.30 80 1014.9
20260901234543 80 276 0.0 0.0 0.00 1.33 1.30 79 1015.1
20260901233042 81 276 0.0 1.0 0.00 1.33 1.30 78 1015.2
20260901231548 82 276 0.0 0.0 0.00 1.33 1.30 76 1015.1
20260901230043 83 276 0.0 2.0 0.00 1.33 1.30 76 1014.8
20260901224541 84 276 0.0 1.0 0.00 1.35 1.30 75 1014.9
20260901223040 84 276 0.0 1.0 0.00 1.35 1.30 75 1014.7
20260901221639 84 276 0.0 3.0 0.00 1.35 1.30 75 1014.6
20260901214537 84 258 1.0 4.0 0.00 1.37 1.30 76 1014.9
20260901213101 83 250 0.0 2.0 0.00 1.37 1.30 76 1014.7
20260901211536 83 279 0.0 7.0 0.00 1.37 1.30 76 1014.7
20260901210042 83 34 0.0 7.0 0.00 1.37 1.30 76 1014.4
20260901204538 83 279 1.0 7.0 0.00 1.42 1.30 76 1014.5
20260901203049 84 17 1.0 8.0 0.00 1.42 1.30 76 1014.7
20260901201530 83 317 2.0 6.0 0.00 1.42 1.30 76 1014.8
20260901200032 83 342 1.0 5.0 0.00 1.42 1.30 79 1014.9
20260901194523 81 172 0.0 3.0 0.00 1.45 1.30 81 1014.9
20260901193019 80 295 0.0 7.0 0.00 1.45 1.30 85 1015.1
20260901191515 79 286 1.0 4.0 0.00 1.45 1.30 89 1015.1
20260901190015 78 315 1.0 8.0 0.00 1.45 1.30 91 1015.0
20260901184524 77 280 1.0 7.0 0.00 1.46 1.30 93 1015.0
20260901183010 77 163 0.0 2.0 0.00 1.46 1.30 94 1015.0
20260901181508 76 163 1.0 2.0 0.00 1.46 1.30 94 1014.9
20260901180006 75 163 1.0 5.0 0.00 1.46 1.30 95 1014.8
20260901174504 75 163 1.0 5.0 0.00 1.52 1.30 95 1014.9
20260901173001 74 163 0.0 1.0 0.00 1.52 1.30 95 1014.9
20260901171600 74 163 0.0 1.0 0.00 1.52 1.30 95 1014.9
20260901170105 74 163 0.0 0.0 0.00 1.52 1.30 95 1014.9
20260901164556 73 163 0.0 1.0 0.00 1.70 1.30 95 1015.0
20260901163052 73 163 0.0 2.0 0.00 1.70 1.30 95 1015.1
20260901161553 73 163 0.0 3.0 0.00 1.70 1.30 95 1015.2
20260901154545 72 171 0.0 3.0 0.00 1.70 1.30 95 1015.4
20260901153043 72 171 0.0 2.0 0.00 1.70 1.30 95 1015.5
20260901151542 71 171 0.0 4.0 0.00 1.70 1.30 95 1015.4
20260901150039 71 170 1.0 5.0 0.08 1.70 1.30 95 1015.4
20260901144539 71 169 1.0 6.0 0.12 1.70 1.30 95 1015.4
20260901143044 71 169 0.0 4.0 0.35 1.70 1.30 95 1015.5
20260901141543 70 171 2.0 4.0 0.35 1.70 1.30 95 1015.6
20260901140050 70 171 0.0 2.0 0.39 1.61 1.21 95 1015.7
20260901134540 70 171 1.0 2.0 0.56 1.54 1.13 95 1015.6
20260901133040 70 171 1.0 3.0 0.67 1.35 0.95 95 1015.8
20260901131537 69 172 1.0 3.0 0.81 1.35 0.95 95 1016.0
20260901130038 69 175 1.0 3.0 0.77 1.22 0.82 95 1016.4
20260901124528 69 187 0.0 3.0 0.47 0.92 0.52 94 1016.3
20260901123029 69 187 1.0 3.0 0.24 0.68 0.28 95 1016.4
20260901121527 69 248 0.0 4.0 0.09 0.53 0.13 95 1016.6
20260901120044 68 155 0.0 2.0 0.01 0.45 0.05 94 1016.0
20260901114524 68 155 1.0 3.0 0.01 0.45 0.05 95 1016.1
20260901113022 67 155 0.0 2.0 0.00 0.44 0.04 95 1015.8
20260901111521 67 155 1.0 3.0 0.00 0.44 0.04 94 1015.8
20260901110019 67 155 1.0 2.0 0.00 0.44 0.04 94 1015.4
20260901104517 66 155 0.0 2.0 0.00 0.44 0.04 94 1015.7
20260901103018 66 155 1.0 2.0 0.00 0.44 0.04 94 1015.7
20260901101511 66 155 0.0 2.0 0.00 0.44 0.04 94 1015.5
20260901100008 66 155 0.0 3.0 0.00 0.44 0.04 94 1015.5
20260901094508 66 155 0.0 2.0 0.00 0.44 0.04 94 1015.7